Location: Misciano
(43.5000°N, 11.9500°E)
Time: 21:53:32
(UTC+00:00)

Okean 1 - Pass Details

Date: 13 August 2020
Orbit: 539 x 554 km, 82.5° (Epoch: 22 September)

Event Time Altitude Azimuth Distance (km) Brightness Sun altitude
Rises 19:58:03 0° 357° (N) 2,742 7.5 -16.5°
Reaches altitude 10° 20:00:18 10° 3° (N) 1,844 6.5 -16.8°
Maximum altitude 20:04:14 47° 78° (ENE) 744 3.7 -17.4°
Enters shadow 20:05:12 38° 119° (ESE) 852 3.8 -17.5°
